Weather History for Halifax International Airport, Nova Scotia

Change the Weather History Date:

Friday, May 16, 2014

  Actual Average Record
Temperature  
Mean Temperature 60 °F -  
Max Temperature 71 °F 63 °F - ()
Min Temperature 49 °F 44 °F - ()
Degree Days  
Heating Degree Days 5    
Growing Degree Days 10 (Base 50)    
Moisture  
Dew Point 47 °F    
Average Humidity 66    
Maximum Humidity 94    
Minimum Humidity 29    
Precipitation  
Precipitation 0.00 in 0.14 in - ()
Sea Level Pressure  
Sea Level Pressure 30.34 in    
Wind  
Wind Speed 11 mph ()    
Max Wind Speed 16 mph    
Max Gust Speed 23 mph    
Visibility 15.0 miles    
Events      
T = Trace of Precipitation, MM = Missing Value Source: Averaged Metar Reports

Daily Weather History Graph

Daily Weather History Graph

Search for Another Location

Airport:

Trip Planner

Search our weather history database for the weather conditions in past years. The results will help you decide how hot, cold, wet, or windy it might be!

Date:

Astronomy

May. 16, 2014 Rise Set
Actual Time 5:44 AM ADT 8:37 PM ADT
Civil Twilight 5:10 AM ADT 9:11 PM ADT
Nautical Twilight 4:26 AM ADT 9:55 PM ADT
Astronomical Twilight 3:35 AM ADT 10:46 PM ADT
Moon 10:39 PM ADT (5/16) 7:21 AM ADT (5/16)
Length of Visible Light 16h 01m
Length of Day
14h 52m
Waning Gibbous, 96% of the Moon is Illuminated
May 16
Waning Gibbous
May 21
Last Quarter
May 28
New
Jun 5
First Quarter
Jun 13
Full

Hourly Weather History & Observations

Time (ADT) Temp. Dew Point Humidity Pressure Visibility Wind Dir Wind Speed Gust Speed Precip Events Conditions
12:00 AM 50.0 °F 41.0 °F 71% 30.38 in 15.0 mi South 10.4 mph - N/A   Partly Cloudy
1:00 AM 50.0 °F 41.0 °F 71% 30.37 in 15.0 mi SSW 12.7 mph - N/A   Partly Cloudy
2:00 AM 51.8 °F 42.8 °F 71% 30.36 in 15.0 mi SSW 15.0 mph 20.7 mph N/A   Mostly Cloudy
3:00 AM 51 °F 45 °F 73% 30.36 in 15 mi SW 13.8 mph - -   Scattered Clouds
3:00 AM 50.0 °F 44.6 °F 82% 30.36 in 15.0 mi SW 13.8 mph - N/A   Partly Cloudy
4:00 AM 50.0 °F 46.4 °F 87% 30.35 in 15.0 mi SW 15.0 mph - N/A   Mostly Cloudy
5:00 AM 51.8 °F 46.4 °F 82% 30.35 in 15.0 mi SSW 9.2 mph - N/A   Overcast
6:00 AM 51.8 °F 48.2 °F 88% 30.35 in 15.0 mi SSW 9.2 mph - N/A   Mostly Cloudy
7:00 AM 53.6 °F 48.2 °F 82% 30.35 in 15.0 mi SSW 6.9 mph - N/A   Mostly Cloudy
8:00 AM 57.2 °F 50.0 °F 77% 30.35 in 15.0 mi SW 11.5 mph - N/A   Scattered Clouds
9:00 AM 60 °F 50 °F 61% 30.36 in 15 mi SW 10.4 mph - -   Clear
9:00 AM 60.8 °F 50.0 °F 68% 30.36 in 15.0 mi SW 10.4 mph - N/A   Partly Cloudy
10:00 AM 62.6 °F 51.8 °F 68% 30.35 in 15.0 mi WSW 11.5 mph - N/A   Mostly Cloudy
11:00 AM 66.2 °F 51.8 °F 60% 30.35 in 15.0 mi WSW 13.8 mph 20.7 mph N/A   Scattered Clouds
12:00 PM 69.8 °F 50.0 °F 49% 30.34 in 15.0 mi SSW 11.5 mph 19.6 mph N/A   Scattered Clouds
1:00 PM 69.8 °F 51.8 °F 53% 30.33 in 15.0 mi SW 11.5 mph 20.7 mph N/A   Scattered Clouds
2:00 PM 69.8 °F 48.2 °F 46% 30.32 in 15.0 mi WSW 13.8 mph 21.9 mph N/A   Partly Cloudy
3:00 PM 70 °F 45 °F 29% 30.32 in 15 mi SSW 13.8 mph - -   Clear
3:00 PM 69.8 °F 44.6 °F 40% 30.32 in 15.0 mi SSW 11.5 mph 20.7 mph N/A   Partly Cloudy
4:00 PM 69.8 °F 37.4 °F 31% 30.32 in 15.0 mi SW 15.0 mph 23.0 mph N/A   Scattered Clouds
5:00 PM 69.8 °F 39.2 °F 33% 30.32 in 15.0 mi South 12.7 mph 21.9 mph N/A   Scattered Clouds
6:00 PM 66.2 °F 48.2 °F 52% 30.32 in 15.0 mi South 13.8 mph 23.0 mph N/A   Scattered Clouds
7:00 PM 62.6 °F 48.2 °F 59% 30.32 in 15.0 mi South 16.1 mph - N/A   Scattered Clouds
8:00 PM 59.0 °F 48.2 °F 67% 30.32 in 15.0 mi South 13.8 mph - N/A   Partly Cloudy
9:00 PM 57 °F 51 °F 74% 30.33 in 15 mi South 9.2 mph - -   Scattered Clouds
9:00 PM 57.2 °F 51.8 °F 82% 30.33 in 15.0 mi South 9.2 mph - N/A   Partly Cloudy
10:00 PM 53.6 °F 50.0 °F 88% 30.34 in 15.0 mi SSE 6.9 mph - N/A   Partly Cloudy
11:00 PM 53.6 °F 51.8 °F 94% 30.33 in 15.0 mi South 8.1 mph - N/A   Partly Cloudy